Zurück zum Katalog

STARLINK-4173

AktivKommunikationVLEO
NORAD 53285·PAYLOAD·🇺🇸 United States

Gestartet Jul 24, 2022 von Cape Canaveral Space Force Station

Loading…

Nächste Überflüge (nächste 24 Stunden)

TLE

AktuellSource: CelesTrak SupGP

Epoche: Sep 14, 2026, 14:09 UTC

1 53285C 22086AV  26257.59006944 -.00025062  00000+0 -71706-3 0  2577
2 53285  53.1603  41.0428 0001167  80.0977 211.6040 15.35410556    18

Verfolge STARLINK-4173 in Echtzeit mit AllMySat

Download on the App Store